Weather History for KMGW - February, 2007

Change the Weather History Date:

Friday, February 23, 2007

  Actual Average Record
Temperature  
Mean Temperature 27 °F 36 °F  
Max Temperature 33 °F 45 °F 68 °F (1996)
Min Temperature 21 °F 27 °F 2 °F (1963)
Degree Days  
Heating Degree Days 38 29  
Month to date heating degree days 720  
Since 1 July heating degree days 3747  
Cooling Degree Days 0 0  
Month to date cooling degree days 0  
Year to date cooling degree days 0  
Moisture  
Dew Point 15 °F    
Average Humidity 63    
Maximum Humidity 80    
Minimum Humidity 42    
Precipitation  
Precipitation 0.00 in 0.10 in 1.10 in (1975)
Month to date precipitation 2.11  
Year to date precipitation 4.92  
Sea Level Pressure  
Sea Level Pressure 30.23 in    
Wind  
Wind Speed 8 mph (NW)    
Max Wind Speed 12 mph    
Max Gust Speed 22 mph    
Visibility 7 miles    
Events Snow    
T = Trace of Precipitation, MM = Missing Value Source: NWS Daily Summary

Daily Weather History Graph

Daily Weather History Graph

Search for Another Location

Airport or City:

Trip Planner

Search our weather history database for the weather conditions in past years. The results will help you decide how hot, cold, wet, or windy it might be!

Date:

Astronomy

Feb. 23, 2007 Rise Set
Actual Time 7:01 AM EST 6:04 PM EST
Civil Twilight 6:34 AM EST 6:32 PM EST
Nautical Twilight 6:03 AM EST 7:03 PM EST
Astronomical Twilight 5:32 AM EST 7:34 PM EST
Moon 10:09 AM EST (2/23) 12:32 AM EST (2/23)
Length of Visible Light 11h 57m
Length of Day
11h 03m
Waxing Crescent, 43% of the Moon is Illuminated
Feb 23
Waxing Crescent
Feb 24
First Quarter
Mar 3
Full
Mar 11
Last Quarter
Mar 18
New

Hourly Weather History & Observations

Time (EST) Temp. Windchill Dew Point Humidity Pressure Visibility Wind Dir Wind Speed Gust Speed Precip Events Conditions
12:53 AM 30.9 °F 21.7 °F 16.0 °F 54% 30.06 in 10.0 mi NNW 11.5 mph 17.3 mph N/A   Overcast
1:53 AM 30.9 °F 22.2 °F 14.0 °F 50% 30.08 in 10.0 mi NW 10.4 mph - N/A   Overcast
2:53 AM 28.9 °F 19.2 °F 15.1 °F 56% 30.10 in 10.0 mi NW 11.5 mph 21.9 mph N/A   Overcast
3:53 AM 27.0 °F 18.7 °F 21.0 °F 78% 30.13 in 3.0 mi NNW 8.1 mph - 0.00 in Snow Light Snow
4:00 AM 26.6 °F 18.2 °F 21.2 °F 80% 30.10 in 2.5 mi North 8.1 mph - 0.00 in Snow Light Snow
4:04 AM 26.6 °F 18.2 °F 21.2 °F 80% 30.10 in 4.0 mi North 8.1 mph - 0.00 in Snow Light Snow
4:53 AM 26.1 °F 17.6 °F 19.0 °F 75% 30.17 in 6.0 mi North 8.1 mph - 0.00 in   Haze
5:44 AM 24.8 °F 16.1 °F 17.6 °F 74% 30.16 in 2.5 mi NNW 8.1 mph - 0.00 in Snow Light Snow
5:51 AM 24.8 °F 16.1 °F 17.6 °F 74% 30.17 in 4.0 mi NNW 8.1 mph - 0.00 in Snow Light Snow
5:53 AM 25.0 °F 17.1 °F 17.1 °F 72% 30.21 in 3.0 mi Variable 6.9 mph - 0.00 in   Haze
6:06 AM 24.8 °F 16.9 °F 17.6 °F 74% 30.18 in 2.0 mi Variable 6.9 mph - 0.00 in Snow Light Snow
6:33 AM 24.8 °F 17.9 °F 17.6 °F 74% 30.18 in 4.0 mi NNW 5.8 mph - 0.00 in Snow Light Snow
6:53 AM 24.1 °F 19.7 °F 18.0 °F 77% 30.23 in 4.0 mi NNW 3.5 mph - 0.00 in   Haze
7:21 AM 24.8 °F 16.9 °F 17.6 °F 74% 30.20 in 2.0 mi NNW 6.9 mph - 0.00 in Snow Light Snow
7:53 AM 24.1 °F 15.2 °F 16.0 °F 71% 30.26 in 4.0 mi NW 8.1 mph - 0.00 in Snow Light Snow
8:11 AM 24.8 °F 17.9 °F 17.6 °F 74% 30.23 in 1.8 mi NW 5.8 mph - 0.00 in Snow Light Snow
8:18 AM 24.8 °F 16.9 °F 17.6 °F 74% 30.24 in 7.0 mi NW 6.9 mph - 0.00 in Snow Light Snow
8:53 AM 25.0 °F 16.3 °F 17.1 °F 72% 30.28 in 10.0 mi NW 8.1 mph - 0.00 in   Mostly Cloudy
9:53 AM 27.0 °F 20.5 °F 14.0 °F 58% 30.30 in 10.0 mi Variable 5.8 mph - N/A   Overcast
10:53 AM 25.0 °F 15.5 °F 15.1 °F 66% 30.30 in 10.0 mi West 9.2 mph - 0.00 in   Overcast
11:05 AM 24.8 °F 16.1 °F 17.6 °F 74% 30.27 in 3.0 mi NW 8.1 mph - 0.00 in Snow Light Snow
11:53 AM 26.1 °F 16.8 °F 16.0 °F 66% 30.31 in 3.0 mi NW 9.2 mph - 0.00 in   Haze
12:53 PM 27.0 °F 18.7 °F 15.1 °F 61% 30.30 in 10.0 mi NW 8.1 mph - 0.00 in   Mostly Cloudy
1:29 PM 28.4 °F 20.4 °F 15.8 °F 59% 30.24 in 10.0 mi NNW 8.1 mph - N/A   Mostly Cloudy
1:53 PM 28.9 °F 19.8 °F 12.9 °F 51% 30.27 in 10.0 mi NW 10.4 mph - N/A   Mostly Cloudy
2:53 PM 30.9 °F 23.5 °F 12.0 °F 46% 30.27 in 10.0 mi NW 8.1 mph - N/A   Scattered Clouds
3:53 PM 33.1 °F 27.7 °F 12.0 °F 42% 30.27 in 10.0 mi Variable 5.8 mph - N/A   Partly Cloudy
4:53 PM 32.0 °F 25.6 °F 10.9 °F 42% 30.27 in 10.0 mi NW 6.9 mph - N/A   Clear
5:53 PM 30.0 °F 25.2 °F 10.9 °F 45% 30.29 in 10.0 mi Variable 4.6 mph - N/A   Clear
6:53 PM 28.0 °F 21.7 °F 10.9 °F 49% 30.32 in 10.0 mi Variable 5.8 mph - N/A   Clear
7:53 PM 27.0 °F 20.5 °F 10.9 °F 51% 30.32 in 10.0 mi NNW 5.8 mph - N/A   Clear
8:53 PM 25.0 °F 18.1 °F 10.0 °F 53% 30.33 in 10.0 mi Variable 5.8 mph - N/A   Clear
9:53 PM 24.1 °F 15.2 °F 10.0 °F 55% 30.33 in 10.0 mi NNW 8.1 mph - N/A   Clear
10:53 PM 21.9 °F 12.5 °F 9.0 °F 58% 30.34 in 10.0 mi North 8.1 mph - N/A   Clear
11:53 PM 21.0 °F 14.6 °F 8.1 °F 57% 30.35 in 10.0 mi North 4.6 mph - N/A   Clear